Location: Gisborne
(38.6530°S, 178.0040°E)
Time: 19:37:20
(UTC+13:00)

CENTAUR R/B - Pass Details

Date: 24 January 2019
Orbit: 791 x 1397 km, 63.5° (Epoch: 16 February)

Event Time Altitude Azimuth Distance (km) Brightness Sun altitude
Exits shadow 23:28:59 40° 77° (ENE) 1,751 3.5 -26.5°
Drops below altitude 10° 23:35:07 10° 132° (SE) 3,044 5.2 -27.1°
Sets 23:37:48 0° 139° (SE) 3,919 5.9 -27.4°
